QFA295 NZAA-YSSY

Flight info

Callsign QFA295
Flight time 1h 59m
Altitude 32000
Route MADEP N774 MARLN
Aircraft B77L/H-SDE1E2E3FGHIJ2J3J4J5M1RWXY/LB1D1

Departure

Time 2026-05-05 11:08
Airport Auckland International Airport (NZAA)

Arrival

Time 2026-05-05 13:07
Airport Sydney Kingsford Smith International Airport (YSSY)
Time Latitude Longitude Altitude Speed Heading
2026-05-05 10:33 -37.00924 174.77977 27 ft 0 kts 251°
2026-05-05 11:01 -37.00922 174.77982 27 ft 2 kts 251°
2026-05-05 11:01 -37.00917 174.78001 26 ft 2 kts 251°
2026-05-05 11:01 -37.00912 174.78021 25 ft 2 kts 251°
2026-05-05 11:02 -37.00907 174.78040 28 ft 2 kts 251°
2026-05-05 11:02 -37.00901 174.78059 27 ft 2 kts 251°
2026-05-05 11:02 -37.00896 174.78079 26 ft 2 kts 251°
2026-05-05 11:02 -37.00892 174.78096 30 ft 1 kts 251°
2026-05-05 11:03 -37.00891 174.78098 30 ft 1 kts 251°
2026-05-05 11:03 -37.00891 174.78096 30 ft 0 kts 251°
2026-05-05 11:04 -37.00892 174.78096 30 ft 1 kts 251°
2026-05-05 11:04 -37.00911 174.78079 26 ft 8 kts 210°
2026-05-05 11:04 -37.00972 174.78086 29 ft 12 kts 162°
2026-05-05 11:05 -37.01050 174.78093 29 ft 7 kts 240°
2026-05-05 11:05 -37.01079 174.78014 28 ft 15 kts 246°
2026-05-05 11:05 -37.01128 174.77835 28 ft 29 kts 251°
2026-05-05 11:05 -37.01204 174.77634 29 ft 15 kts 204°
2026-05-05 11:06 -37.01295 174.77599 27 ft 15 kts 240°
2026-05-05 11:06 -37.01338 174.77448 30 ft 23 kts 251°
2026-05-05 11:06 -37.01399 174.77224 27 ft 31 kts 250°
2026-05-05 11:06 -37.01479 174.77106 30 ft 17 kts 195°
2026-05-05 11:07 -37.01590 174.77084 31 ft 9 kts 169°
2026-05-05 11:07 -37.01611 174.77150 30 ft 12 kts 80°
2026-05-05 11:07 -37.01539 174.77406 31 ft 60 kts 70°
2026-05-05 11:07 -37.01329 174.78164 26 ft 122 kts 71°
2026-05-05 11:08 -37.00992 174.79364 36 ft 167 kts 70°
2026-05-05 11:08 -37.00599 174.80771 362 ft 177 kts 71°
2026-05-05 11:08 -37.00191 174.82219 946 ft 172 kts 70°
2026-05-05 11:08 -36.99793 174.83575 1691 ft 163 kts 69°
2026-05-05 11:09 -36.99404 174.84934 2167 ft 170 kts 68°
2026-05-05 11:09 -36.98998 174.86381 2492 ft 187 kts 68°
2026-05-05 11:09 -36.98554 174.87996 2762 ft 206 kts 69°
2026-05-05 11:09 -36.98072 174.89770 3022 ft 229 kts 69°
2026-05-05 11:10 -36.97536 174.91713 3503 ft 241 kts 68°
2026-05-05 11:10 -36.96960 174.93722 4134 ft 250 kts 68°
2026-05-05 11:10 -36.96351 174.95785 4828 ft 255 kts 67°
2026-05-05 11:10 -36.95625 174.97817 5534 ft 256 kts 55°
2026-05-05 11:11 -36.94368 174.99411 6112 ft 262 kts 30°
2026-05-05 11:11 -36.92649 175.00114 6771 ft 263 kts
2026-05-05 11:11 -36.90848 174.99792 7272 ft 264 kts 340°
2026-05-05 11:11 -36.89276 174.98630 7704 ft 265 kts 322°
2026-05-05 11:12 -36.87901 174.97087 8052 ft 272 kts 319°
2026-05-05 11:12 -36.86538 174.95471 8622 ft 270 kts 318°
2026-05-05 11:12 -36.85167 174.93839 9090 ft 273 kts 318°
2026-05-05 11:12 -36.83851 174.92079 9407 ft 286 kts 309°
2026-05-05 11:13 -36.82860 174.89920 10011 ft 290 kts 286°
2026-05-05 11:13 -36.82788 174.87380 10479 ft 303 kts 263°
2026-05-05 11:13 -36.83251 174.84705 10638 ft 327 kts 258°
2026-05-05 11:13 -36.83763 174.81840 10807 ft 349 kts 260°
2026-05-05 11:14 -36.84187 174.78751 11037 ft 369 kts 263°
2026-05-05 11:14 -36.84509 174.75531 11596 ft 379 kts 265°
2026-05-05 11:14 -36.84760 174.72229 12334 ft 385 kts 267°
2026-05-05 11:14 -36.84974 174.68888 13197 ft 388 kts 267°
2026-05-05 11:15 -36.85181 174.65508 14076 ft 392 kts 267°
2026-05-05 11:15 -36.85388 174.62108 14914 ft 395 kts 267°
2026-05-05 11:15 -36.85598 174.58670 15708 ft 398 kts 267°
2026-05-05 11:15 -36.85810 174.55209 16479 ft 402 kts 267°
2026-05-05 11:16 -36.86023 174.51722 17243 ft 405 kts 267°
2026-05-05 11:16 -36.86238 174.48192 17979 ft 409 kts 267°
2026-05-05 11:16 -36.86455 174.44629 18722 ft 413 kts 268°
2026-05-05 11:16 -36.86672 174.41038 19384 ft 416 kts 268°
2026-05-05 11:17 -36.86888 174.37422 20047 ft 419 kts 268°
2026-05-05 11:17 -36.87105 174.33782 20701 ft 422 kts 268°
2026-05-05 11:17 -36.87323 174.30114 21342 ft 425 kts 268°
2026-05-05 11:17 -36.87539 174.26463 21992 ft 428 kts 268°
2026-05-05 11:18 -36.87761 174.22689 22628 ft 432 kts 268°
2026-05-05 11:18 -36.87978 174.18985 23212 ft 436 kts 268°
2026-05-05 11:18 -36.88198 174.15197 23810 ft 439 kts 268°
2026-05-05 11:18 -36.88420 174.11377 24332 ft 443 kts 268°
2026-05-05 11:19 -36.88642 174.07523 24858 ft 445 kts 268°
2026-05-05 11:19 -36.88864 174.03660 25388 ft 448 kts 267°
2026-05-05 11:19 -36.89070 173.99768 25905 ft 450 kts 269°
2026-05-05 11:19 -36.88877 173.95875 26337 ft 451 kts 279°
2026-05-05 11:20 -36.88291 173.92014 26775 ft 454 kts 282°
2026-05-05 11:20 -36.87645 173.88142 27246 ft 457 kts 281°
2026-05-05 11:20 -36.87006 173.84241 27731 ft 459 kts 281°
2026-05-05 11:20 -36.86390 173.80314 28192 ft 462 kts 280°
2026-05-05 11:21 -36.85795 173.76354 28635 ft 465 kts 279°
2026-05-05 11:21 -36.85213 173.72369 29060 ft 468 kts 279°
2026-05-05 11:21 -36.84633 173.68353 29476 ft 471 kts 279°
2026-05-05 11:21 -36.84052 173.64322 29873 ft 474 kts 279°
2026-05-05 11:22 -36.83465 173.60263 30265 ft 476 kts 279°
2026-05-05 11:22 -36.82881 173.56253 30718 ft 475 kts 279°
2026-05-05 11:22 -36.82281 173.52150 31200 ft 474 kts 278°
2026-05-05 11:22 -36.81699 173.48180 31613 ft 473 kts 279°
2026-05-05 11:23 -36.81104 173.44125 32008 ft 473 kts 278°
2026-05-05 11:23 -36.80511 173.40097 32432 ft 472 kts 279°
2026-05-05 11:23 -36.79923 173.36112 32838 ft 471 kts 279°
2026-05-05 11:23 -36.79332 173.32096 33238 ft 470 kts 279°
2026-05-05 11:24 -36.78741 173.28081 33547 ft 472 kts 279°
2026-05-05 11:24 -36.78150 173.24077 34135 ft 467 kts 279°
2026-05-05 11:24 -36.77753 173.21388 34433 ft 466 kts 279°
2026-05-05 11:25 -36.76575 173.13396 34430 ft 476 kts 279°
2026-05-05 11:25 -36.75359 173.05209 34434 ft 482 kts 279°
2026-05-05 11:26 -36.74129 172.96990 34430 ft 482 kts 279°
2026-05-05 11:26 -36.72896 172.88787 34419 ft 482 kts 279°
2026-05-05 11:27 -36.71658 172.80583 34414 ft 481 kts 279°
2026-05-05 11:27 -36.70418 172.72409 34409 ft 479 kts 279°
2026-05-05 11:28 -36.69174 172.64246 34418 ft 479 kts 279°
2026-05-05 11:28 -36.67927 172.56103 34415 ft 478 kts 279°
2026-05-05 11:29 -36.66677 172.47977 34406 ft 478 kts 279°
2026-05-05 11:29 -36.65421 172.39854 34396 ft 478 kts 279°
2026-05-05 11:30 -36.64158 172.31727 34407 ft 478 kts 279°
2026-05-05 11:30 -36.62899 172.23654 34413 ft 478 kts 279°
2026-05-05 11:31 -36.61624 172.15525 34414 ft 479 kts 279°
2026-05-05 11:31 -36.60343 172.07392 34402 ft 479 kts 279°
2026-05-05 11:32 -36.59054 171.99247 34412 ft 480 kts 279°
2026-05-05 11:32 -36.57760 171.91109 34406 ft 480 kts 279°
2026-05-05 11:33 -36.56460 171.82966 34405 ft 480 kts 279°
2026-05-05 11:33 -36.55154 171.74829 34400 ft 480 kts 279°
2026-05-05 11:34 -36.53843 171.66694 34399 ft 480 kts 279°
2026-05-05 11:34 -36.52527 171.58566 34397 ft 479 kts 279°
2026-05-05 11:35 -36.51207 171.50452 34398 ft 479 kts 279°
2026-05-05 11:35 -36.49882 171.42339 34397 ft 479 kts 279°
2026-05-05 11:36 -36.48552 171.34236 34394 ft 479 kts 279°
2026-05-05 11:36 -36.47216 171.26133 34388 ft 478 kts 279°
2026-05-05 11:37 -36.45876 171.18040 34391 ft 478 kts 280°
2026-05-05 11:37 -36.44531 171.09951 34392 ft 478 kts 280°
2026-05-05 11:38 -36.43180 171.01863 34395 ft 478 kts 280°
2026-05-05 11:38 -36.41824 170.93779 34394 ft 478 kts 280°
2026-05-05 11:39 -36.40464 170.85701 34384 ft 478 kts 279°
2026-05-05 11:39 -36.39101 170.77644 34387 ft 477 kts 279°
2026-05-05 11:40 -36.37968 170.69565 34382 ft 473 kts 274°
2026-05-05 11:40 -36.37502 170.61492 34381 ft 472 kts 271°
2026-05-05 11:41 -36.37128 170.53362 34364 ft 471 kts 271°
2026-05-05 11:41 -36.36676 170.45263 34380 ft 470 kts 272°
2026-05-05 11:42 -36.36164 170.37184 34372 ft 469 kts 272°
2026-05-05 11:42 -36.35632 170.29121 34375 ft 468 kts 272°
2026-05-05 11:43 -36.35096 170.21074 34372 ft 468 kts 272°
2026-05-05 11:43 -36.34558 170.13027 34370 ft 467 kts 272°
2026-05-05 11:44 -36.34018 170.05020 34365 ft 465 kts 272°
2026-05-05 11:44 -36.33475 169.97047 34368 ft 463 kts 272°
2026-05-05 11:45 -36.32928 169.89094 34374 ft 462 kts 272°
2026-05-05 11:45 -36.32377 169.81155 34361 ft 462 kts 272°
2026-05-05 11:46 -36.31820 169.73230 34364 ft 460 kts 272°
2026-05-05 11:46 -36.31219 169.65336 34358 ft 459 kts 272°
2026-05-05 11:47 -36.30678 169.57452 34358 ft 459 kts 272°
2026-05-05 11:47 -36.30127 169.49566 34360 ft 459 kts 272°
2026-05-05 11:48 -36.29272 169.37757 34347 ft 459 kts 272°
2026-05-05 11:48 -36.28695 169.29939 34356 ft 459 kts 272°
2026-05-05 11:49 -36.28107 169.22055 34354 ft 459 kts 272°
2026-05-05 11:49 -36.27814 169.18112 34154 ft 460 kts 272°
2026-05-05 11:49 -36.27518 169.14174 34274 ft 458 kts 272°
2026-05-05 11:50 -36.26922 169.06325 34339 ft 458 kts 272°
2026-05-05 11:50 -36.26319 168.98445 34350 ft 460 kts 272°
2026-05-05 11:51 -36.25710 168.90550 34349 ft 461 kts 272°
2026-05-05 11:51 -36.25095 168.82636 34347 ft 462 kts 272°
2026-05-05 11:52 -36.24473 168.74712 34345 ft 462 kts 272°
2026-05-05 11:52 -36.23845 168.66780 34326 ft 462 kts 272°
2026-05-05 11:53 -36.23219 168.58937 34332 ft 459 kts 272°
2026-05-05 11:53 -36.22587 168.51085 34334 ft 457 kts 272°
2026-05-05 11:54 -36.21952 168.43260 34333 ft 455 kts 272°
2026-05-05 11:54 -36.21315 168.35470 34332 ft 454 kts 272°
2026-05-05 11:55 -36.20674 168.27687 34330 ft 453 kts 272°
2026-05-05 11:55 -36.20030 168.19948 34329 ft 451 kts 272°
2026-05-05 11:56 -36.19390 168.12306 34324 ft 450 kts 273°
2026-05-05 11:56 -36.18742 168.04627 34325 ft 449 kts 273°
2026-05-05 11:57 -36.18089 167.96943 34327 ft 449 kts 273°
2026-05-05 11:57 -36.17431 167.89267 34320 ft 447 kts 273°
2026-05-05 11:58 -36.16771 167.81619 34319 ft 446 kts 273°
2026-05-05 11:58 -36.16106 167.73983 34320 ft 446 kts 273°
2026-05-05 11:59 -36.15443 167.66416 34315 ft 445 kts 273°
2026-05-05 11:59 -36.14401 167.54633 34331 ft 444 kts 274°
2026-05-05 12:00 -36.11665 167.24325 34301 ft 442 kts 274°
2026-05-05 12:00 -36.08867 166.94188 34303 ft 440 kts 274°
2026-05-05 12:01 -36.05999 166.64127 34287 ft 440 kts 275°
2026-05-05 12:01 -36.03057 166.34100 34284 ft 441 kts 276°
2026-05-05 12:02 -36.01545 166.18970 35177 ft 442 kts 275°
2026-05-05 12:02 -36.00028 166.03980 36201 ft 441 kts 276°
2026-05-05 12:02 -35.96911 165.73764 36248 ft 437 kts 276°
2026-05-05 12:03 -35.95376 165.59158 36166 ft 423 kts 276°
2026-05-05 12:03 -35.93864 165.44929 36323 ft 417 kts 276°
2026-05-05 12:03 -35.90728 165.15919 36262 ft 435 kts 276°
2026-05-05 12:04 -35.87474 164.86527 36155 ft 425 kts 277°
2026-05-05 12:04 -35.84258 164.58092 36195 ft 419 kts 277°
2026-05-05 12:05 -35.80925 164.29266 36119 ft 433 kts 278°
2026-05-05 12:05 -35.77527 164.00496 36262 ft 418 kts 278°
2026-05-05 12:06 -35.74107 163.72129 36274 ft 422 kts 278°
2026-05-05 12:06 -35.70533 163.43079 36148 ft 434 kts 279°
2026-05-05 12:07 -35.66895 163.14101 36204 ft 424 kts 279°
2026-05-05 12:07 -35.63227 162.85501 36172 ft 424 kts 279°
2026-05-05 12:08 -35.59416 162.56387 36186 ft 438 kts 279°
2026-05-05 12:08 -35.57449 162.41576 36084 ft 437 kts 279°
2026-05-05 12:08 -35.55476 162.26866 35773 ft 435 kts 279°
2026-05-05 12:09 -35.51522 161.97794 36015 ft 436 kts 280°
2026-05-05 12:09 -35.50176 161.88020 36132 ft 439 kts 280°
2026-05-05 12:09 -35.47464 161.68499 36110 ft 435 kts 280°
2026-05-05 12:10 -35.43378 161.39536 35923 ft 428 kts 281°
2026-05-05 12:10 -35.41831 161.28702 36167 ft 426 kts 281°
2026-05-05 12:10 -35.41313 161.25098 36129 ft 432 kts 281°
2026-05-05 12:11 -35.40455 161.19133 36112 ft 422 kts 281°
2026-05-05 12:11 -35.39437 161.12081 36126 ft 423 kts 281°
2026-05-05 12:12 -35.38391 161.04882 36126 ft 435 kts 281°
2026-05-05 12:12 -35.37321 160.97540 36113 ft 439 kts 281°
2026-05-05 12:13 -35.36247 160.90193 36112 ft 438 kts 281°
2026-05-05 12:13 -35.35170 160.82865 36104 ft 436 kts 281°
2026-05-05 12:14 -35.34092 160.75561 36111 ft 435 kts 282°
2026-05-05 12:14 -35.33011 160.68271 36108 ft 435 kts 282°
2026-05-05 12:15 -35.31928 160.60999 36106 ft 434 kts 282°
2026-05-05 12:15 -35.30841 160.53733 36106 ft 434 kts 282°
2026-05-05 12:16 -35.29749 160.46464 36100 ft 435 kts 282°
2026-05-05 12:16 -35.28649 160.39173 36103 ft 436 kts 282°
2026-05-05 12:17 -35.27549 160.31912 36102 ft 437 kts 282°
2026-05-05 12:17 -35.24689 160.13167 36119 ft 439 kts 282°
2026-05-05 12:18 -35.20136 159.83740 36106 ft 440 kts 282°
2026-05-05 12:18 -35.15527 159.54444 36082 ft 438 kts 282°
2026-05-05 12:19 -35.10868 159.25311 36082 ft 435 kts 282°
2026-05-05 12:19 -35.06181 158.96464 36088 ft 432 kts 283°
2026-05-05 12:20 -35.01475 158.67945 36101 ft 429 kts 283°
2026-05-05 12:20 -34.99113 158.53815 36054 ft 441 kts 281°
2026-05-05 12:20 -34.96731 158.39601 35975 ft 413 kts 283°
2026-05-05 12:21 -34.94434 158.26060 36167 ft 408 kts 283°
2026-05-05 12:21 -34.92078 158.12275 36289 ft 426 kts 283°
2026-05-05 12:21 -34.89593 157.97813 36141 ft 439 kts 283°
2026-05-05 12:21 -34.87085 157.83314 36214 ft 430 kts 283°
2026-05-05 12:22 -34.84624 157.69202 36182 ft 418 kts 283°
2026-05-05 12:22 -34.82191 157.55365 36181 ft 417 kts 283°
2026-05-05 12:22 -34.79734 157.41481 36316 ft 422 kts 283°
2026-05-05 12:22 -34.77196 157.27242 36044 ft 437 kts 283°
2026-05-05 12:23 -34.72102 156.98942 36160 ft 419 kts 283°
2026-05-05 12:23 -34.67093 156.71516 36371 ft 416 kts 283°
2026-05-05 12:24 -34.64547 156.57710 36527 ft 423 kts 283°
2026-05-05 12:24 -34.61913 156.43530 36037 ft 435 kts 284°
2026-05-05 12:24 -34.59278 156.29425 35833 ft 421 kts 284°
2026-05-05 12:24 -34.56739 156.15932 36235 ft 403 kts 284°
2026-05-05 12:25 -34.51578 155.88791 36366 ft 427 kts 284°
2026-05-05 12:25 -34.48848 155.74557 36098 ft 431 kts 285°
2026-05-05 12:25 -34.46142 155.60543 35883 ft 423 kts 285°
2026-05-05 12:26 -34.44683 155.53025 36045 ft 416 kts 285°
2026-05-05 12:26 -34.43351 155.46192 36149 ft 417 kts 285°
2026-05-05 12:27 -34.42008 155.39322 36161 ft 420 kts 285°
2026-05-05 12:27 -34.40654 155.32417 36165 ft 423 kts 285°
2026-05-05 12:28 -34.39300 155.25522 36160 ft 424 kts 285°
2026-05-05 12:28 -34.37929 155.18569 36158 ft 425 kts 285°
2026-05-05 12:29 -34.36966 155.11501 36157 ft 426 kts 279°
2026-05-05 12:30 -34.35570 154.97650 36167 ft 424 kts 279°
2026-05-05 12:30 -34.34841 154.90612 36156 ft 424 kts 280°
2026-05-05 12:31 -34.34102 154.83543 36157 ft 423 kts 280°
2026-05-05 12:31 -34.33361 154.76485 36158 ft 423 kts 280°
2026-05-05 12:32 -34.32616 154.69436 36163 ft 422 kts 280°
2026-05-05 12:32 -34.31873 154.62435 36165 ft 422 kts 280°
2026-05-05 12:33 -34.31121 154.55390 36163 ft 422 kts 280°
2026-05-05 12:33 -34.30365 154.48351 36164 ft 422 kts 280°
2026-05-05 12:34 -34.29604 154.41298 36164 ft 423 kts 280°
2026-05-05 12:34 -34.28839 154.34250 36167 ft 423 kts 280°
2026-05-05 12:35 -34.28074 154.27244 36166 ft 423 kts 280°
2026-05-05 12:35 -34.27300 154.20184 36169 ft 424 kts 280°
2026-05-05 12:36 -34.26521 154.13123 36169 ft 424 kts 280°
2026-05-05 12:36 -34.25738 154.06063 36169 ft 424 kts 280°
2026-05-05 12:37 -34.24956 153.99044 36169 ft 424 kts 280°
2026-05-05 12:37 -34.24164 153.91971 36170 ft 425 kts 280°
2026-05-05 12:38 -34.23370 153.84904 36173 ft 425 kts 280°
2026-05-05 12:38 -34.22574 153.77832 36171 ft 425 kts 280°
2026-05-05 12:39 -34.21775 153.70762 36182 ft 425 kts 281°
2026-05-05 12:39 -34.20976 153.63735 36174 ft 425 kts 281°
2026-05-05 12:40 -34.20167 153.56652 36174 ft 425 kts 281°
2026-05-05 12:40 -34.19354 153.49573 36174 ft 425 kts 281°
2026-05-05 12:41 -34.18536 153.42496 36175 ft 425 kts 281°
2026-05-05 12:41 -34.17728 153.35509 35962 ft 412 kts 281°
2026-05-05 12:42 -34.17338 153.32156 35507 ft 407 kts 281°
2026-05-05 12:42 -34.16941 153.28762 34680 ft 410 kts 281°
2026-05-05 12:42 -34.16537 153.25326 33693 ft 416 kts 281°
2026-05-05 12:42 -34.16123 153.21830 32502 ft 425 kts 281°
2026-05-05 12:43 -34.15706 153.18285 31652 ft 426 kts 281°
2026-05-05 12:43 -34.15292 153.14765 31115 ft 421 kts 280°
2026-05-05 12:43 -34.14883 153.11291 30625 ft 415 kts 280°
2026-05-05 12:43 -34.14477 153.07857 30056 ft 412 kts 280°
2026-05-05 12:44 -34.14078 153.04492 29353 ft 410 kts 280°
2026-05-05 12:44 -34.13673 153.01098 28652 ft 408 kts 280°
2026-05-05 12:44 -34.13269 152.97714 27984 ft 406 kts 280°
2026-05-05 12:44 -34.12864 152.94346 27358 ft 404 kts 280°
2026-05-05 12:45 -34.12457 152.91002 26753 ft 402 kts 280°
2026-05-05 12:45 -34.12047 152.87668 26148 ft 401 kts 280°
2026-05-05 12:45 -34.11639 152.84350 25559 ft 399 kts 280°
2026-05-05 12:45 -34.11231 152.81042 24989 ft 398 kts 280°
2026-05-05 12:46 -34.10830 152.77789 24427 ft 397 kts 280°
2026-05-05 12:46 -34.10424 152.74501 23884 ft 396 kts 280°
2026-05-05 12:46 -34.10018 152.71221 23282 ft 395 kts 280°
2026-05-05 12:46 -34.09614 152.67958 22716 ft 392 kts 279°
2026-05-05 12:47 -34.09211 152.64713 22174 ft 390 kts 279°
2026-05-05 12:47 -34.08811 152.61491 21639 ft 387 kts 279°
2026-05-05 12:47 -34.08410 152.58286 21109 ft 386 kts 279°
2026-05-05 12:47 -34.08023 152.55092 20589 ft 384 kts 278°
2026-05-05 12:48 -34.07712 152.51944 20325 ft 387 kts 277°
2026-05-05 12:48 -34.07417 152.48632 20227 ft 406 kts 276°
2026-05-05 12:48 -34.07118 152.45226 20192 ft 409 kts 276°
2026-05-05 12:48 -34.06813 152.41813 20188 ft 409 kts 276°
2026-05-05 12:49 -34.06504 152.38413 20106 ft 406 kts 277°
2026-05-05 12:49 -34.06194 152.35063 19869 ft 398 kts 277°
2026-05-05 12:49 -34.05887 152.31785 19578 ft 389 kts 277°
2026-05-05 12:49 -34.05582 152.28547 19039 ft 388 kts 276°
2026-05-05 12:50 -34.05275 152.25304 18389 ft 391 kts 276°
2026-05-05 12:50 -34.04969 152.22083 17672 ft 393 kts 276°
2026-05-05 12:50 -34.04659 152.18814 17104 ft 391 kts 276°
2026-05-05 12:50 -34.04350 152.15575 16706 ft 386 kts 276°
2026-05-05 12:51 -34.04046 152.12387 16334 ft 380 kts 276°
2026-05-05 12:51 -34.03744 152.09237 15856 ft 377 kts 276°
2026-05-05 12:51 -34.03441 152.06099 15343 ft 377 kts 276°
2026-05-05 12:51 -34.03128 152.02961 14840 ft 376 kts 277°
2026-05-05 12:52 -34.02811 151.99850 14453 ft 372 kts 277°
2026-05-05 12:52 -34.02495 151.96768 14042 ft 370 kts 277°
2026-05-05 12:52 -34.02180 151.93691 13497 ft 369 kts 277°
2026-05-05 12:52 -34.01872 151.90683 13132 ft 364 kts 276°
2026-05-05 12:53 -34.01564 151.87671 12671 ft 362 kts 277°
2026-05-05 12:53 -34.01257 151.84663 12163 ft 361 kts 277°
2026-05-05 12:53 -34.00948 151.81653 11634 ft 361 kts 277°
2026-05-05 12:53 -34.00640 151.78664 11211 ft 358 kts 277°
2026-05-05 12:54 -34.00027 151.72738 10320 ft 353 kts 277°
2026-05-05 12:54 -33.99723 151.69801 9823 ft 353 kts 277°
2026-05-05 12:54 -33.99420 151.66883 9385 ft 349 kts 276°
2026-05-05 12:55 -33.99122 151.64022 8864 ft 349 kts 276°
2026-05-05 12:55 -33.98819 151.61135 8416 ft 346 kts 276°
2026-05-05 12:55 -33.98519 151.58273 8069 ft 342 kts 276°
2026-05-05 12:55 -33.98217 151.55398 7999 ft 348 kts 276°
2026-05-05 12:56 -33.97914 151.52512 8064 ft 346 kts 276°
2026-05-05 12:56 -33.97617 151.49622 8046 ft 348 kts 276°
2026-05-05 12:56 -33.97339 151.46756 7961 ft 338 kts 272°
2026-05-05 12:56 -33.97560 151.43969 7592 ft 336 kts 252°
2026-05-05 12:57 -33.98612 151.41495 7348 ft 331 kts 230°
2026-05-05 12:57 -34.00179 151.39564 7200 ft 323 kts 221°
2026-05-05 12:57 -34.01872 151.37830 7129 ft 317 kts 218°
2026-05-05 12:57 -34.03558 151.36162 7036 ft 308 kts 218°
2026-05-05 12:58 -34.05171 151.34580 6827 ft 291 kts 218°
2026-05-05 12:58 -34.06703 151.33077 6411 ft 277 kts 218°
2026-05-05 12:58 -34.08163 151.31654 5972 ft 263 kts 218°
2026-05-05 12:58 -34.09547 151.30303 5738 ft 248 kts 218°
2026-05-05 12:59 -34.10827 151.29043 5591 ft 226 kts 218°
2026-05-05 12:59 -34.11997 151.27882 5525 ft 217 kts 217°
2026-05-05 12:59 -34.13172 151.26765 5227 ft 213 kts 208°
2026-05-05 13:00 -34.16006 151.26362 4796 ft 203 kts 175°
2026-05-05 13:00 -34.17382 151.26462 4699 ft 192 kts 175°
2026-05-05 13:01 -34.20604 151.24826 3784 ft 191 kts 256°
2026-05-05 13:01 -34.20464 151.23245 3349 ft 195 kts 296°
2026-05-05 13:01 -34.19545 151.22087 3052 ft 201 kts 327°
2026-05-05 13:01 -34.18313 151.21274 3021 ft 204 kts 341°
2026-05-05 13:02 -34.16922 151.21163 2938 ft 202 kts 12°
2026-05-05 13:02 -34.15564 151.21499 2840 ft 193 kts 13°
2026-05-05 13:02 -34.14255 151.21840 2874 ft 193 kts 12°
2026-05-05 13:02 -34.12904 151.21937 2848 ft 196 kts 358°
2026-05-05 13:03 -34.11540 151.21874 2935 ft 196 kts 357°
2026-05-05 13:03 -34.10174 151.21709 2659 ft 199 kts 349°
2026-05-05 13:03 -34.08876 151.21286 2478 ft 182 kts 345°
2026-05-05 13:03 -34.07702 151.20917 2209 ft 174 kts 348°
2026-05-05 13:04 -34.06489 151.20667 1742 ft 177 kts 352°
2026-05-05 13:04 -34.05294 151.20407 1608 ft 177 kts 346°
2026-05-05 13:04 -34.04103 151.20056 1511 ft 176 kts 347°
2026-05-05 13:04 -34.03032 151.19773 1302 ft 178 kts 347°
2026-05-05 13:05 -34.03023 151.19771 1300 ft 178 kts 347°
2026-05-05 13:05 -34.01820 151.19450 1120 ft 175 kts 346°
2026-05-05 13:05 -34.00634 151.19164 935 ft 174 kts 349°
2026-05-05 13:05 -33.99476 151.18869 691 ft 167 kts 343°
2026-05-05 13:06 -33.98375 151.18572 437 ft 162 kts 346°
2026-05-05 13:06 -33.97307 151.18294 240 ft 152 kts 345°
2026-05-05 13:06 -33.96306 151.18039 34 ft 143 kts 344°
2026-05-05 13:06 -33.95448 151.17807 26 ft 102 kts 347°
2026-05-05 13:07 -33.94821 151.17646 27 ft 92 kts 347°
2026-05-05 13:07 -33.94200 151.17486 29 ft 92 kts 347°
2026-05-05 13:07 -33.93602 151.17334 20 ft 82 kts 348°
2026-05-05 13:07 -33.93434 151.17196 20 ft 19 kts 268°
2026-05-05 13:08 -33.93444 151.17132 22 ft 0 kts 257°
2026-05-05 13:08 -33.93444 151.17129 24 ft 2 kts 258°
2026-05-05 13:08 -33.93426 151.17094 28 ft 6 kts 328°
2026-05-05 13:08 -33.93385 151.17072 28 ft 8 kts 339°
2026-05-05 13:09 -33.93322 151.17037 29 ft 13 kts 323°
2026-05-05 13:09 -33.93254 151.16959 29 ft 14 kts 347°
2026-05-05 13:09 -33.93154 151.16936 28 ft 15 kts 347°
2026-05-05 13:09 -33.93075 151.16890 28 ft 1 kts 285°
2026-05-05 13:10 -33.93079 151.16881 29 ft 2 kts 243°
2026-05-05 13:10 -33.93085 151.16868 28 ft 2 kts 243°
2026-05-05 13:10 -33.93093 151.16848 29 ft 3 kts 243°
2026-05-05 13:10 -33.93103 151.16817 29 ft 5 kts 258°
2026-05-05 13:11 -33.93109 151.16783 26 ft 0 kts 257°
2026-05-05 13:12 -33.93110 151.16782 26 ft 1 kts 257°
2026-05-05 13:12 -33.93110 151.16781 26 ft 0 kts 257°